| time (UTC) | temp F | wind direction | speed knots | gust knots | rain 1hr in | rain 24hr in | rain mn in | humidity % | barometer mb |
| 20260507212930 | 63 | 340 | 0.0 | 6.1 | 0.00 | 0.22 | 0.18 | 35 | 1005.0 |
| 20260507211431 | 63 | 172 | 2.6 | 10.4 | 0.00 | 0.23 | 0.18 | 35 | 1004.9 |
| 20260507205928 | 65 | 222 | 2.6 | 7.0 | 0.00 | 0.24 | 0.18 | 33 | 1004.7 |
| 20260507204429 | 65 | 109 | 2.6 | 7.0 | 0.00 | 0.24 | 0.18 | 35 | 1004.6 |
| 20260507202930 | 65 | 276 | 1.7 | 10.4 | 0.00 | 0.24 | 0.18 | 35 | 1004.8 |
| 20260507201433 | 65 | 262 | 3.5 | 10.4 | 0.00 | 0.25 | 0.18 | 34 | 1004.6 |
| 20260507195928 | 66 | 228 | 1.7 | 5.2 | 0.00 | 0.25 | 0.18 | 34 | 1004.7 |
| 20260507194428 | 65 | 264 | 1.7 | 7.0 | 0.00 | 0.26 | 0.18 | 33 | 1005.0 |
| 20260507192930 | 65 | 240 | 1.7 | 7.8 | 0.00 | 0.27 | 0.18 | 36 | 1005.1 |
| 20260507191432 | 65 | 240 | 1.7 | 7.0 | 0.00 | 0.28 | 0.18 | 33 | 1005.2 |
| 20260507185930 | 65 | 251 | 2.6 | 7.0 | 0.00 | 0.28 | 0.18 | 35 | 1005.3 |
| 20260507184429 | 66 | 252 | 0.9 | 4.3 | 0.00 | 0.28 | 0.18 | 34 | 1005.5 |
| 20260507182930 | 66 | 129 | 0.0 | 9.6 | 0.00 | 0.28 | 0.18 | 36 | 1005.6 |
| 20260507181429 | 66 | 80 | 1.7 | 7.0 | 0.00 | 0.28 | 0.18 | 33 | 1005.7 |
| 20260507175930 | 66 | 260 | 3.5 | 10.4 | 0.00 | 0.28 | 0.18 | 35 | 1005.7 |
| 20260507174431 | 65 | 327 | 1.7 | 9.6 | 0.00 | 0.28 | 0.18 | 40 | 1005.8 |
| 20260507172930 | 65 | 39 | 0.9 | 8.7 | 0.00 | 0.28 | 0.18 | 39 | 1005.8 |
| 20260507171429 | 65 | 34 | 0.9 | 5.2 | 0.00 | 0.28 | 0.18 | 38 | 1005.9 |
| 20260507165930 | 65 | 241 | 1.7 | 11.3 | 0.00 | 0.28 | 0.18 | 41 | 1006.0 |
| 20260507164430 | 65 | 244 | 2.6 | 6.1 | 0.00 | 0.28 | 0.18 | 41 | 1006.2 |
| 20260507162932 | 66 | 252 | 0.0 | 5.2 | 0.00 | 0.28 | 0.18 | 45 | 1006.3 |
| 20260507161430 | 64 | 307 | 1.7 | 4.3 | 0.00 | 0.28 | 0.18 | 49 | 1006.5 |
| 20260507155929 | 63 | 252 | 1.7 | 6.1 | 0.00 | 0.28 | 0.18 | 49 | 1006.5 |
| 20260507154430 | 62 | 275 | 2.6 | 7.0 | 0.00 | 0.28 | 0.18 | 52 | 1006.6 |
| 20260507152929 | 62 | 250 | 2.6 | 7.0 | 0.00 | 0.28 | 0.18 | 54 | 1006.7 |
| 20260507151430 | 62 | 103 | 1.7 | 5.2 | 0.00 | 0.28 | 0.18 | 57 | 1006.8 |
| 20260507145931 | 61 | 245 | 1.7 | 5.2 | 0.01 | 0.28 | 0.18 | 59 | 1006.7 |
| 20260507144430 | 60 | 193 | 0.9 | 4.3 | 0.01 | 0.28 | 0.18 | 64 | 1006.9 |
| 20260507142931 | 60 | 199 | 1.7 | 8.7 | 0.01 | 0.28 | 0.18 | 65 | 1007.3 |
| 20260507141430 | 60 | 262 | 1.7 | 7.0 | 0.01 | 0.28 | 0.18 | 62 | 1007.2 |
| 20260507135930 | 60 | 249 | 1.7 | 4.3 | 0.00 | 0.27 | 0.17 | 65 | 1007.3 |
| 20260507134430 | 59 | 72 | 0.0 | 2.6 | 0.00 | 0.27 | 0.17 | 71 | 1007.3 |
| 20260507132929 | 57 | 225 | 0.9 | 4.3 | 0.00 | 0.27 | 0.17 | 75 | 1007.5 |
| 20260507131431 | 55 | 248 | 0.0 | 4.3 | 0.00 | 0.27 | 0.17 | 81 | 1007.5 |
| 20260507125931 | 54 | 266 | 0.0 | 3.5 | 0.00 | 0.27 | 0.17 | 84 | 1007.6 |
| 20260507124433 | 52 | 273 | 0.9 | 5.2 | 0.00 | 0.27 | 0.17 | 88 | 1007.7 |
| 20260507122932 | 51 | 82 | 0.0 | 1.7 | 0.00 | 0.27 | 0.17 | 92 | 1007.9 |
| 20260507121429 | 49 | 190 | 0.0 | 4.3 | 0.00 | 0.27 | 0.17 | 92 | 1007.8 |
| 20260507115931 | 49 | 186 | 0.0 | 0.0 | 0.00 | 0.27 | 0.17 | 93 | 1007.7 |
| 20260507114432 | 49 | 123 | 0.0 | 0.0 | 0.00 | 0.27 | 0.17 | 93 | 1007.6 |
| 20260507112930 | 48 | 123 | 0.0 | 0.0 | 0.00 | 0.27 | 0.17 | 92 | 1007.6 |
| 20260507111431 | 48 | 123 | 0.0 | 0.0 | 0.00 | 0.27 | 0.17 | 92 | 1007.4 |
| 20260507105931 | 48 | 123 | 0.0 | 0.0 | 0.00 | 0.27 | 0.17 | 92 | 1007.4 |
| 20260507104433 | 48 | 123 | 0.0 | 0.0 | 0.01 | 0.27 | 0.17 | 92 | 1007.1 |
| 20260507102932 | 47 | 123 | 0.0 | 0.0 | 0.03 | 0.27 | 0.17 | 92 | 1007.6 |
| 20260507101433 | 47 | 123 | 0.0 | 0.0 | 0.05 | 0.27 | 0.17 | 92 | 1007.1 |
| 20260507095932 | 47 | 123 | 0.0 | 0.9 | 0.08 | 0.27 | 0.17 | 92 | 1007.2 |
| 20260507094433 | 47 | 123 | 0.0 | 0.9 | 0.10 | 0.26 | 0.16 | 91 | 1007.0 |
| 20260507092930 | 48 | 136 | 0.0 | 0.9 | 0.10 | 0.24 | 0.14 | 91 | 1006.9 |
| 20260507091432 | 48 | 331 | 0.0 | 1.7 | 0.08 | 0.22 | 0.12 | 91 | 1006.8 |
| 20260507085934 | 48 | 138 | 0.0 | 0.9 | 0.07 | 0.19 | 0.09 | 90 | 1007.0 |
| 20260507084430 | 48 | 139 | 0.0 | 0.9 | 0.05 | 0.16 | 0.06 | 90 | 1007.2 |
| 20260507082934 | 49 | 263 | 0.0 | 1.7 | 0.04 | 0.14 | 0.04 | 90 | 1007.1 |
| 20260507081433 | 50 | 237 | 0.0 | 0.9 | 0.04 | 0.14 | 0.04 | 88 | 1006.7 |
| 20260507075932 | 50 | 237 | 0.0 | 3.5 | 0.02 | 0.12 | 0.02 | 87 | 1007.0 |
| 20260507074432 | 52 | 153 | 0.0 | 5.2 | 0.01 | 0.11 | 0.01 | 86 | 1006.6 |
| 20260507072932 | 53 | 246 | 0.9 | 3.5 | 0.00 | 0.10 | 0.00 | 85 | 1006.5 |
| 20260507071432 | 53 | 181 | 0.0 | 3.5 | 0.00 | 0.10 | 0.00 | 85 | 1005.8 |
| 20260507065932 | 54 | 131 | 0.0 | 0.9 | 0.00 | 0.10 | 0.00 | 87 | 1005.6 |
| 20260507064432 | 54 | 150 | 0.0 | 2.6 | 0.00 | 0.10 | 0.00 | 86 | 1005.5 |
| 20260507062931 | 55 | 257 | 0.0 | 4.3 | 0.00 | 0.10 | 0.00 | 86 | 1006.0 |
| 20260507061432 | 55 | 245 | 0.9 | 1.7 | 0.00 | 0.10 | 0.00 | 86 | 1005.7 |
| 20260507055932 | 55 | 71 | 0.0 | 1.7 | 0.00 | 0.10 | 0.00 | 86 | 1005.9 |
| 20260507054432 | 56 | 260 | 0.0 | 5.2 | 0.00 | 0.10 | 0.00 | 85 | 1006.0 |
| 20260507052931 | 57 | 258 | 1.7 | 8.7 | 0.00 | 0.10 | 0.00 | 88 | 1006.3 |
| 20260507051431 | 57 | 240 | 0.0 | 7.8 | 0.00 | 0.10 | 0.00 | 89 | 1006.1 |
| 20260507045931 | 58 | 262 | 0.0 | 1.7 | 0.00 | 0.10 | 0.00 | 90 | 1005.9 |
| 20260507044431 | 58 | 163 | 0.9 | 5.2 | 0.00 | 0.10 | 0.00 | 90 | 1006.0 |
| 20260507042932 | 58 | 251 | 0.0 | 3.5 | 0.00 | 0.10 | 0.00 | 91 | 1005.9 |
| 20260507041432 | 58 | 269 | 0.0 | 3.5 | 0.00 | 0.10 | 0.00 | 91 | 1005.8 |
| 20260507035931 | 59 | 218 | 0.9 | 2.6 | 0.00 | 0.10 | 0.00 | 92 | 1005.8 |
| 20260507034431 | 59 | 236 | 0.0 | 1.7 | 0.00 | 0.10 | 0.10 | 92 | 1006.0 |
| 20260507032931 | 58 | 252 | 0.0 | 1.7 | 0.00 | 0.10 | 0.10 | 92 | 1005.8 |
| 20260507031432 | 58 | 210 | 0.9 | 1.7 | 0.00 | 0.10 | 0.10 | 92 | 1005.7 |
| 20260507025932 | 58 | 240 | 0.0 | 1.7 | 0.00 | 0.10 | 0.10 | 92 | 1005.6 |
| 20260507024432 | 58 | 244 | 0.0 | 1.7 | 0.00 | 0.10 | 0.10 | 92 | 1005.5 |
| 20260507022931 | 58 | 247 | 0.0 | 2.6 | 0.00 | 0.10 | 0.10 | 92 | 1005.6 |
| 20260507021433 | 58 | 246 | 0.0 | 1.7 | 0.00 | 0.10 | 0.10 | 92 | 1005.4 |
| 20260507015933 | 58 | 234 | 0.9 | 2.6 | 0.00 | 0.10 | 0.10 | 92 | 1005.7 |
| 20260507014432 | 58 | 240 | 0.0 | 1.7 | 0.00 | 0.10 | 0.10 | 92 | 1005.5 |
| 20260507012932 | 58 | 250 | 0.0 | 1.7 | 0.00 | 0.10 | 0.10 | 92 | 1005.7 |
| 20260507011432 | 58 | 242 | 0.9 | 1.7 | 0.00 | 0.10 | 0.10 | 92 | 1005.9 |
| 20260507005932 | 57 | 236 | 0.0 | 1.7 | 0.00 | 0.10 | 0.10 | 92 | 1005.9 |
| 20260507004431 | 57 | 219 | 0.0 | 1.7 | 0.00 | 0.10 | 0.10 | 92 | 1005.9 |
| 20260507002931 | 57 | 220 | 0.0 | 2.6 | 0.01 | 0.10 | 0.10 | 92 | 1005.9 |
| 20260507001434 | 57 | 243 | 0.9 | 3.5 | 0.02 | 0.10 | 0.10 | 92 | 1005.7 |
| 20260506235932 | 57 | 136 | 0.0 | 2.6 | 0.03 | 0.10 | 0.10 | 92 | 1005.6 |
| 20260506234431 | 58 | 157 | 0.0 | 1.7 | 0.03 | 0.10 | 0.10 | 91 | 1005.5 |
| 20260506232932 | 58 | 148 | 0.9 | 2.6 | 0.02 | 0.09 | 0.09 | 91 | 1005.4 |
| 20260506231431 | 58 | 148 | 0.0 | 2.6 | 0.01 | 0.08 | 0.08 | 91 | 1005.4 |
| 20260506225933 | 58 | 153 | 0.0 | 2.6 | 0.00 | 0.07 | 0.07 | 91 | 1005.5 |
| 20260506224431 | 59 | 143 | 0.9 | 2.6 | 0.00 | 0.07 | 0.07 | 91 | 1005.5 |
| 20260506222931 | 59 | 133 | 0.9 | 1.7 | 0.01 | 0.07 | 0.07 | 91 | 1005.5 |
| 20260506221431 | 59 | 157 | 0.9 | 3.5 | 0.02 | 0.07 | 0.07 | 91 | 1005.8 |
| 20260506215932 | 59 | 175 | 0.9 | 2.6 | 0.03 | 0.07 | 0.07 | 91 | 1005.7 |
| 20260506214431 | 59 | 217 | 0.0 | 2.6 | 0.03 | 0.07 | 0.07 | 90 | 1005.8 |